This demonstration page uses our WeatherBlox Daily Observations layout. Learn more.

Left ArrowRight Arrow

31.31129, -92.44514

Hourly Observations for September 25, 2022

Temp ( °F °C ) Dew Point ( °F °C ) Humidity (%) Winds ( mph kmh ) Pressure ( in mb ) Visibility ( mi km ) Precip ( " mm )
12:53 am 00:53 Clear 77 25 70 21.1 79 79 SE 3 6 29.93 1014 9 14 0.00 0.00
1:53 am 01:53 Clear 76 24.4 70 21.1 82 82 Calm 29.93 1014 8 13 0.00 0.00
2:53 am 02:53 Clear 74 23.3 70 21.1 87 87 Calm 29.93 1014 7 11 0.00 0.00
3:53 am 03:53 Clear 74 23.3 70 21.1 87 87 Calm 29.93 1013 7 11 0.00 0.00
4:53 am 04:53 Clear 74 23.3 69 20.6 85 85 Calm 29.93 1014 8 13 0.00 0.00
5:53 am 05:53 Clear 73 22.8 69 20.6 87 87 Calm 29.94 1014 7 11 0.00 0.00
6:53 am 06:53 Clear with Mist and Fog 72 22.2 68 20 87 87 Calm 29.96 1015 6 10 0.00 0.00
7:53 am 07:53 Sunny 74 23.3 68 20 82 82 Calm 29.96 1015 7 11 0.00 0.00
8:53 am 08:53 Sunny 80 26.7 70 21.1 71 71 NNW 6 9 29.97 1015 9 14 0.00 0.00
9:53 am 09:53 Sunny 85 29.4 71 21.7 63 63 N 7 11 29.98 1015 10 16 0.00 0.00
10:53 am 10:53 Sunny 88 31.1 71 21.7 57 57 NNW 5 7 29.98 1015 10 16 0.00 0.00
11:53 am 11:53 Sunny 93 33.9 69 20.6 46 46 N 6 9 29.96 1015 10 16 0.00 0.00
12:53 pm 12:53 Sunny 94 34.4 67 19.4 41 41 VRB 5 7 29.94 1014 10 16 0.00 0.00
1:53 pm 13:53 Sunny 96 35.6 66 18.9 38 38 VRB 7 11 29.92 1013 10 16 0.00 0.00
2:53 pm 14:53 Sunny 97 36.1 65 18.3 35 35 NW 8 13 29.89 1012 10 16 0.00 0.00
3:53 pm 15:53 Sunny 98 36.7 64 17.8 33 33 N 6 9 29.87 1012 10 16 0.00 0.00
4:53 pm 16:53 Sunny 97 36.1 63 17.2 33 33 N 5 7 29.86 1011 10 16 0.00 0.00
5:53 pm 17:53 Mostly Sunny 96 35.6 64 17.8 35 35 NNE 5 7 29.87 1011 10 16 0.00 0.00
6:53 pm 18:53 Partly Cloudy 89 31.7 70 21.1 54 54 E 5 7 29.88 1012 10 16 0.00 0.00
7:53 pm 19:53 Clear 83 28.3 71 21.7 67 67 Calm 29.88 1012 10 16 0.00 0.00
8:53 pm 20:53 Clear 81 27.2 70 21.1 69 69 Calm 29.90 1012 10 16 0.00 0.00
9:53 pm 21:53 Clear 80 26.7 71 21.7 74 74 Calm 29.91 1013 10 16 0.00 0.00
10:53 pm 22:53 Clear 80 26.7 71 21.7 74 74 N 7 11 29.93 1014 10 16 0.00 0.00
11:53 pm 23:53 Clear 78 25.6 68 20 71 71 Calm 29.93 1014 10 16 0.00 0.00

Powered by AerisWeather